sat.trackr.live / text

‹ back to catalog

ONEWEB-0102

NORAD 47258 · 2020-100A

PAYLOAD ACTIVE UNKNOWN

§ Identity

Operator
Country
UK
Launch date
2020-12-18
Launch site
VOSTO
Launch vehicle
Mass (kg)
RCS (m²)

Purposes: comms

External: N2YO · Heavens-Above · Gunter

§ Orbital elements

Epoch: 2026-09-19T12:22:26.156928Z

Period
109.72 min
Inclination
87.8976°
Eccentricity
0.0001781
Mean motion
13.12442201 rev/d
Perigee alt
1,212.4 km
Apogee alt
1,215.1 km
Semi-major
7,591.9 km
B*
-5.6256e-4
RAAN
331.9445°
Arg perigee
92.0976°
Mean anomaly
268.0356°
Rev number
27,710

§ Raw data

ONEWEB-01021 47258U 20100A   26262.51558052 -.00000190  00000+0 -56256-3 0  99962 47258  87.8976 331.9445 0001781  92.0976 268.0356 13.12442201277109

JSON: /api/v1/satellites/47258 · /tle

For live sub-satellite position, see the globe view (requires WebGL).

§ Visibility from observer

Set your observer location to see the next 7 days of passes ≥ 10°. The values pass through the URL so the page stays shareable.

No JS? Fill the form by hand. The geolocation button needs JavaScript.